Location: 22
(39.7117°N, 89.5929°W)
Time: 06:39:55
(UTC-05:00)

A-11 Canister half - Pass Details

Date: 06 February 2023
Orbit: 1526 x 1682 km, 47.3° (Epoch: 01 April)

Event Time Altitude Azimuth Distance (km) Brightness Sun altitude
Exits shadow 05:44:37 15° 252° (WSW) 3,313 10.2 -15.2°
Maximum altitude 05:52:42 75° 336° (NNW) 1,578 9.0 -13.6°
Drops below altitude 10° 06:02:07 10° 62° (ENE) 3,733 11.8 -11.8°
Sets 06:05:14 0° 65° (ENE) 4,733 12.5 -11.3°
